[[{"header":{"parameterUnit":"m.s-1","parameterCategory":1,"la1":30.2991,"la2":30.254,"lo1":-89.0895,"lo2":-89.0444,"dy":0.0017,"dx":0.0017,"nx":28,"ny":28,"refTime":"2024-03-13T09:00:00:Z","depth":0,"parameterNumber":2,"parameterNumberName":"U-component_of_WINDS"},"data":[0,0,0,0,0,0,0,0,0,0,0,0,0,0,0,0,0,0,0,0,0,0,0,0,0,0,0,0,0,0,0,0,0,0,0,0,0,0,0,0,0,0,0,0,0,0,0,0,0,0,0,0,0,0,0,0,0,0,-4.2642,-4.2642,0,-4.2652,-4.2653,-4.2653,-4.2575,-4.2573,-4.2571,-4.2569,-4.258,-4.2582,-4.2584,0,0,0,0,0,0,0,0,0,0,0,0,0,-4.2556,-4.2558,-4.2642,-4.2642,-4.2643,-4.2652,-4.2653,-4.2653,-4.2576,-4.2573,-4.2571,-4.2568,-4.2579,-4.2582,-4.2585,0,0,0,0,0,0,0,0,0,0,0,0,0,-4.2583,-4.2559,-4.2642,-4.2605,-4.2602,-4.2652,-4.2653,-4.2653,-4.2576,-4.2573,-4.257,-4.2567,-4.2578,-4.2582,-4.2585,-4.2671,0,0,-4.2595,-4.2597,0,0,0,0,0,0,0,0,-4.2581,-4.2586,-4.2611,-4.2608,-4.2604,-4.2609,-4.2626,-4.2659,-4.2577,-4.2586,-4.2569,-4.2565,-4.2592,-4.2594,-4.2603,-4.2672,-4.2672,-4.2596,-4.2598,-4.2599,-4.26,0,0,0,0,0,0,0,-4.258,-4.2585,-4.2646,-4.2611,-4.2607,-4.2588,-4.2588,-4.2632,-4.2607,-4.2585,-4.258,-4.2582,-4.259,-4.26,-4.2603,-4.2672,-4.2596,-4.2599,-4.2601,-4.2602,-4.2809,-4.2813,0,0,0,0,0,0,-4.2583,-4.2584,-4.2646,-4.2647,-4.2585,-4.2592,-4.2593,-4.2611,-4.2607,-4.2603,-4.2585,-4.2578,-4.2596,-4.2599,-4.2603,-4.2701,-4.2599,-4.2603,-4.2605,-4.2806,-4.281,-4.2814,0,0,0,0,0,0,-4.2581,-4.2589,-4.2646,-4.2614,-4.262,-4.2597,-4.2619,-4.2613,-4.2623,-4.2606,-4.2601,-4.2599,-4.2594,-4.2598,-4.2654,-4.2701,-4.2604,-4.2607,-4.2802,-4.2807,-4.2812,-4.29,0,0,0,0,0,0,-4.2579,-4.2589,-4.2621,-4.2615,-4.2622,-4.2697,-4.2622,-4.2616,-4.2629,-4.2621,-4.2619,-4.2615,-4.2591,-4.265,-4.2658,-4.2704,-4.261,-4.2798,-4.2804,-4.281,-4.2893,-4.2908,-4.292,0,0,0,0,0,-4.2576,-4.2646,-4.2623,-4.2631,-4.2662,-4.27,-4.2703,-4.2674,-4.2633,-4.2665,-4.2654,-4.2616,-4.2695,-4.2656,-4.2664,-4.2712,-4.2795,-4.2802,-4.281,-4.2887,-4.2905,-4.292,0,0,0,0,0,0,-4.2659,-4.2645,-4.2619,-4.269,-4.2696,-4.2686,-4.2726,-4.2694,-4.2713,-4.2704,-4.2667,-4.2667,-4.2729,-4.2727,-4.2683,-4.2794,-4.2738,-4.2747,-4.2793,-4.281,-4.2823,-4.2821,-4.2613,0,0,0,0,0,-4.2686,-4.2717,-4.2703,-4.2767,-4.2771,-4.2749,-4.2764,-4.2741,-4.2746,-4.2749,-4.2742,-4.2749,-4.2775,-4.2793,-4.2816,-4.2893,-4.289,-4.293,-4.2944,-4.2955,-4.2963,-4.3001,-4.3018,-4.2839,-4.2839,-4.2839,0,0,-4.274,-4.2737,-4.2759,-4.2783,-4.2786,-4.2819,-4.2751,-4.279,-4.2814,-4.2755,-4.2806,-4.2802,-4.2807,-4.2873,-4.2902,-4.2873,-4.3012,-4.2965,-4.2974,-4.2976,-4.3011,-4.3028,-4.3043,-4.2845,-4.2844,-4.2843,0,0,-4.2856,-4.2858,-4.2909,-4.2913,-4.2917,-4.2902,-4.2914,-4.291,-4.2904,-4.2955,-4.2911,-4.2939,-4.2986,-4.2991,-4.2999,-4.3117,-4.3081,-4.3127,-4.3196,-4.3234,-4.3248,-4.326,-4.3299,-4.3314,-4.3135,-4.3135,-4.3135,0,-4.2923,-4.2971,-4.294,-4.298,-4.2992,-4.294,-4.2991,-4.2997,-4.3009,-4.3018,-4.2986,-4.3042,-4.3042,-4.3107,-4.3136,-4.3146,-4.3158,-4.3125,-4.3249,-4.3261,-4.3272,-4.3308,-4.3324,-4.314,-4.314,-4.3139,-4.3139,0,-4.3052,-4.3086,-4.3128,-4.3139,-4.3156,-4.3202,-4.3177,-4.3198,-4.3174,-4.3161,-4.3214,-4.3212,-4.3233,-4.3248,-4.3225,-4.331,-4.3291,-4.3255,-4.3196,-4.3294,-4.3328,-4.3342,-4.3148,-4.3146,-4.3145,-4.3143,0,0,-4.3218,-4.3212,-4.3228,-4.3231,-4.3233,-4.3258,-4.3302,-4.3323,-4.334,-4.3351,-4.3385,-4.3426,-4.3391,-4.3401,-4.3379,-4.3413,-4.3503,-4.3371,-4.3371,-4.3393,-4.3593,-4.3617,-4.3634,-4.348,-4.3483,-4.3485,-4.3591,0,-4.3328,-4.3401,-4.3374,-4.3449,-4.3479,-4.3431,-4.3469,-4.3474,-4.3464,-4.3488,-4.3477,-4.3505,-4.3459,-4.3465,-4.3496,-4.3485,-4.3542,-4.3478,-4.351,-4.3511,-4.3506,-4.3652,-4.3679,-4.3779,-4.3604,-4.3607,-4.3608,0,-4.3466,-4.3481,-4.3559,-4.3553,-4.3565,-4.3599,-4.3615,-4.3639,-4.3643,-4.3634,-4.3645,-4.3615,-4.3657,-4.3602,-4.3658,-4.3614,-4.3627,-4.3624,-4.3627,-4.3626,-4.3563,-4.3652,-4.381,-4.3824,-4.3629,-4.3628,-4.3626,0,-4.3575,-4.3615,-4.3666,-4.3672,-4.3668,-4.3692,-4.3692,-4.3693,-4.3707,-4.3721,-4.3729,-4.3749,-4.3759,-4.3775,-4.3751,-4.3713,-4.3809,-4.3753,-4.3801,-4.3801,-4.382,-4.3819,-4.3979,-4.3835,-4.3834,-4.3834,-4.3834,0,-4.3699,-4.3747,-4.3714,-4.3745,-4.3798,-4.3767,-4.382,-4.3815,-4.3816,-4.3845,-4.3806,-4.3834,-4.3802,-4.3827,-4.3809,-4.3856,-4.3862,-4.3855,-4.3848,-4.3856,-4.3856,-4.386,-4.3852,-4.3838,-4.3837,-4.3836,-4.3836,0,-4.3828,-4.3808,-4.386,-4.3852,-4.3851,-4.389,-4.3883,-4.3911,-4.3899,-4.3935,-4.3942,-4.3923,-4.395,-4.3929,-4.3956,-4.3943,-4.4005,-4.3991,-4.4003,-4.3998,-4.4046,-4.404,-4.4212,-4.4231,-4.4078,-4.4079,-4.4081,0,-4.3906,-4.3942,-4.3938,-4.3954,-4.3955,-4.3982,-4.3996,-4.3968,-4.3983,-4.399,-4.4017,-4.4041,-4.4058,-4.4103,-4.4091,-4.4111,-4.4095,-4.4154,-4.4098,-4.4103,-4.4092,-4.4088,-4.409,-4.4164,-4.4166,-4.4168,-4.4169,0,-4.4046,-4.4035,-4.4055,-4.4072,-4.4089,-4.4101,-4.4111,-4.4126,-4.4097,-4.4117,-4.4143,-4.4157,-4.4183,-4.4207,-4.4223,-4.4222,-4.419,-4.4187,-4.4199,-4.4204,-4.4208,-4.4203,-4.403,-4.4182,-4.4181,-4.418,-4.4179,-4.4179,-4.415,-4.4178,-4.4179,-4.4203,-4.4207,-4.4216,-4.4241,-4.4232,-4.4254,-4.4273,-4.4256,-4.4287,-4.429,-4.4308,-4.4312,-4.4335,-4.4311,-4.4329,-4.4332,-4.4336,-4.4341,-4.4208,-4.4339,-4.4339,-4.4338,-4.4338,-4.4337,0,-4.4284,-4.4283,-4.4305,-4.4318,-4.4337,-4.4307,-4.4315,-4.4333,-4.4361,-4.4366,-4.4383,-4.4413,-4.4436,-4.4426,-4.4446,-4.4467,-4.4452,-4.4472,-4.4469,-4.4468,-4.4364,-4.435,-4.4483,-4.4483,-4.4483,-4.4483,-4.4483,-4.4483,-4.4356,-4.4402,-4.4391,-4.4438,-4.4436,-4.4466,-4.4473,-4.4482,-4.4485,-4.452,-4.4538,-4.4532,-4.4531,-4.455,-4.4569,-4.4566,-4.4573,-4.4598,-4.4589,-4.4491,-4.4476,-4.4462,-4.4449,-4.4601,-4.4601,-4.4691,-4.4692,-4.4692]},{"header":{"parameterUnit":"m.s-1","parameterCategory":1,"la1":30.2991,"la2":30.254,"lo1":-89.0895,"lo2":-89.0444,"dy":0.0017,"dx":0.0017,"nx":28,"ny":28,"refTime":"2024-03-13T09:00:00:Z","depth":0,"parameterNumber":3,"parameterNumberName":"V-component_of_WINDS"},"data":[0,0,0,0,0,0,0,0,0,0,0,0,0,0,0,0,0,0,0,0,0,0,0,0,0,0,0,0,0,0,0,0,0,0,0,0,0,0,0,0,0,0,0,0,0,0,0,0,0,0,0,0,0,0,0,0,0,0,2.1087,2.1088,0,2.1193,2.1194,2.1195,2.1249,2.1249,2.1249,2.1249,2.1351,2.1354,2.1356,0,0,0,0,0,0,0,0,0,0,0,0,0,2.0928,2.093,2.1087,2.1088,2.109,2.1193,2.1194,2.1195,2.1249,2.1249,2.1249,2.1249,2.135,2.1353,2.1356,0,0,0,0,0,0,0,0,0,0,0,0,0,2.1011,2.0931,2.1087,2.1129,2.1134,2.1192,2.1194,2.1196,2.1249,2.1249,2.1249,2.1249,2.1349,2.1353,2.1357,2.138,0,0,2.1369,2.1371,0,0,0,0,0,0,0,0,2.1006,2.1017,2.1121,2.1126,2.1132,2.1208,2.1175,2.1257,2.1249,2.1205,2.1249,2.1249,2.1303,2.1311,2.133,2.1384,2.1389,2.1369,2.1372,2.1374,2.1375,0,0,0,0,0,0,0,2.1,2.1013,2.1129,2.1123,2.1129,2.1141,2.1153,2.1191,2.1252,2.1209,2.1213,2.1225,2.1306,2.1326,2.1333,2.139,2.1369,2.1373,2.1375,2.1377,2.1472,2.1472,0,0,0,0,0,0,2.0989,2.1007,2.1125,2.1132,2.1068,2.1144,2.1157,2.1183,2.1252,2.1262,2.1225,2.1227,2.1319,2.1328,2.1337,2.137,2.1374,2.1377,2.138,2.1471,2.1472,2.1472,0,0,0,0,0,0,2.0985,2.0999,2.1121,2.1071,2.1087,2.1147,2.1175,2.1185,2.1206,2.1264,2.1274,2.1235,2.132,2.1331,2.137,2.1374,2.1379,2.1383,2.1471,2.1471,2.1472,2.1435,0,0,0,0,0,0,2.098,2.0997,2.1007,2.1071,2.109,2.1153,2.1175,2.1187,2.1213,2.1217,2.1276,2.1286,2.1321,2.1363,2.1374,2.138,2.1386,2.1471,2.1471,2.1472,2.1437,2.1434,2.1433,0,0,0,0,0,2.0974,2.099,2.1007,2.1021,2.1104,2.1153,2.1164,2.1206,2.1213,2.1224,2.1262,2.1284,2.1372,2.1367,2.1379,2.1386,2.1471,2.1471,2.1472,2.1437,2.1435,2.1433,0,0,0,0,0,0,2.0923,2.1,2.1019,2.1057,2.1099,2.1163,2.1177,2.1201,2.124,2.1242,2.129,2.1302,2.1337,2.1365,2.1358,2.1413,2.1424,2.1426,2.1394,2.1392,2.139,2.1382,2.1389,0,0,0,0,0,2.0916,2.0952,2.1016,2.1043,2.1064,2.1116,2.1139,2.1168,2.1213,2.123,2.127,2.1311,2.1348,2.1371,2.1408,2.1441,2.1455,2.1452,2.145,2.1448,2.145,2.1471,2.1471,2.1473,2.1473,2.1473,0,0,2.0902,2.0949,2.0967,2.1034,2.107,2.1105,2.1131,2.1166,2.1192,2.1234,2.1275,2.1306,2.1354,2.1391,2.1409,2.1415,2.1453,2.1448,2.1446,2.1449,2.1471,2.1471,2.1471,2.1473,2.1473,2.1473,0,0,2.0895,2.0933,2.0961,2.0998,2.1053,2.1089,2.1095,2.1157,2.118,2.1221,2.1255,2.1286,2.1348,2.1382,2.1408,2.1417,2.1439,2.1427,2.1417,2.1437,2.1437,2.1437,2.1442,2.1443,2.1429,2.1429,2.1428,0,2.087,2.0926,2.0972,2.1007,2.1036,2.1079,2.1108,2.114,2.1203,2.1221,2.1228,2.131,2.1345,2.1391,2.1394,2.1413,2.1422,2.1421,2.1433,2.1434,2.1435,2.144,2.1441,2.1427,2.1427,2.1427,2.1427,0,2.0893,2.0931,2.0947,2.1011,2.1041,2.1072,2.1123,2.1148,2.1174,2.1209,2.1252,2.1296,2.1344,2.1357,2.1382,2.1407,2.141,2.1425,2.1436,2.1432,2.1438,2.144,2.1424,2.1425,2.1425,2.1426,0,0,2.0855,2.0947,2.0952,2.0982,2.1048,2.1077,2.1111,2.1161,2.1182,2.1224,2.1254,2.1307,2.1322,2.1351,2.138,2.1397,2.1404,2.141,2.1412,2.1409,2.1437,2.1426,2.1427,2.142,2.142,2.142,2.1433,0,2.0858,2.0923,2.0967,2.1013,2.105,2.1093,2.1122,2.1165,2.1198,2.1233,2.1269,2.1307,2.1323,2.1341,2.1361,2.1399,2.141,2.1399,2.1447,2.1448,2.1435,2.143,2.1419,2.1428,2.1435,2.1436,2.1436,0,2.087,2.0915,2.0966,2.1031,2.1047,2.1073,2.1124,2.1157,2.1206,2.1229,2.1263,2.1294,2.1331,2.1339,2.139,2.1382,2.1404,2.1426,2.1427,2.1434,2.1442,2.1437,2.1432,2.1434,2.1439,2.1439,2.1439,0,2.0839,2.0912,2.0953,2.0978,2.1053,2.107,2.1102,2.1152,2.118,2.1224,2.1242,2.1288,2.1314,2.1348,2.139,2.1392,2.1438,2.1449,2.1458,2.1457,2.1466,2.1465,2.1465,2.1478,2.1478,2.1478,2.1478,0,2.0838,2.0868,2.0941,2.0966,2.1001,2.1051,2.1084,2.1119,2.1164,2.1196,2.1234,2.1263,2.1317,2.1352,2.1385,2.1424,2.1434,2.1454,2.1462,2.1451,2.1449,2.1467,2.1467,2.1479,2.1479,2.1478,2.1478,0,2.0809,2.0859,2.0907,2.0976,2.0994,2.1017,2.1075,2.1101,2.1138,2.1178,2.119,2.1247,2.1291,2.1337,2.1395,2.1418,2.1455,2.1466,2.1439,2.1444,2.1451,2.145,2.1464,2.1469,2.1477,2.1477,2.1477,0,2.0806,2.0831,2.0904,2.093,2.0962,2.1002,2.1032,2.1082,2.1111,2.1172,2.119,2.1238,2.1279,2.1347,2.1392,2.1437,2.1451,2.1452,2.1457,2.1446,2.1452,2.1451,2.1454,2.145,2.145,2.145,2.1449,0,2.0795,2.082,2.0863,2.0915,2.0951,2.0994,2.1037,2.1056,2.1115,2.1146,2.1193,2.1225,2.1287,2.1334,2.1385,2.1416,2.1443,2.1448,2.1452,2.1442,2.1426,2.1436,2.1436,2.1447,2.1447,2.1447,2.1448,2.1448,2.0781,2.0806,2.0862,2.0909,2.0948,2.0989,2.1018,2.106,2.1101,2.1158,2.1184,2.1232,2.1282,2.1355,2.1385,2.1423,2.143,2.1436,2.1438,2.1439,2.1437,2.1419,2.1432,2.1432,2.1432,2.1432,2.1432,0,2.0773,2.0813,2.0856,2.0918,2.0955,2.098,2.1031,2.106,2.1102,2.1148,2.1189,2.1244,2.129,2.134,2.1389,2.1409,2.1423,2.1421,2.142,2.1427,2.1427,2.1419,2.1409,2.1409,2.1409,2.1409,2.1409,2.1409,2.0774,2.0819,2.085,2.0915,2.0953,2.1003,2.103,2.1068,2.1105,2.1166,2.1206,2.124,2.1288,2.1341,2.1384,2.1398,2.1414,2.1409,2.1426,2.1425,2.1427,2.1428,2.1421,2.1412,2.1412,2.1423,2.1423,2.1424]}]]